Regional Weather Roundup
Issued by NWS

Home | Current Version | Previous Version | Text Only | Print | Product List | Glossary Off
Versions: 1 2 3 4 5 6 7 8 9 10 11 12 13 14 15 16 17 18 19 20 21 22 23 24 25 26 27 28 29 30 31 32 33 34 35 36 37 38 39 40 41 42 43 44 45 46 47 48 49 50

000
ASUS45 KCYS 231910
RWRWY

WYOMING REGIONAL WEATHER ROUNDUP
NATIONAL WEATHER SERVICE CHEYENNE WY
1200 PM MST MON JAN 23 2017

NOTE:  "FAIR" INDICATES FEW OR NO CLOUDS BELOW 12,000 FEET
WITH NO SIGNIFICANT WEATHER AND/OR OBSTRUCTIONS TO VISIBILITY.

WYZ001-232000-
YELLOWSTONE NATIONAL PARK

CITY           SKY/WX    TMP DP  RH WIND       PRES   REMARKS
LK YELLOWSTONE   N/A     19  14  81 SE3       29.51F
W YELLOWSTONE  NOT AVBL

$$
WYZ002>013-054>058-071-098>099-232000-
NORTHERN WYOMING

CITY           SKY/WX    TMP DP  RH WIND       PRES   REMARKS
JACKSON        LGT SNOW  19  19 100 CALM      29.52F VSB 1
CODY           FAIR      23  16  74 N5        29.61F WCI  17
GREYBULL       FAIR      25  18  74 NW8       29.62F WCI  16
WORLAND        FAIR      27  22  81 N6        29.60F WCI  20
SHERIDAN       FAIR      28  20  71 W14       29.64F WCI  17
BUFFALO        FAIR      31  19  61 N12G24    29.60F WCI  22
GILLETTE       FAIR      36  24  62 N9        29.59S WCI  29
HULETT         FAIR      28  21  74 N5        29.61F WCI  23
NEWCASTLE      CLOUDY    30  30 100 NW7       29.60F WCI  23

$$
WYZ014>020-022>026-101>103-232000-
CENTRAL WYOMING

CITY           SKY/WX    TMP DP  RH WIND       PRES   REMARKS
BIG PINEY      LGT SNOW  21  18  88 NE10      29.50F FOG     WCI  10
PINEDALE       SNOW      19  18  93 NW3       29.51F VSB 1/2
DUBOIS         NOT AVBL
LANDER         CLOUDY    25  16  68 NW7       29.53F WCI  17
RIVERTON       PTSUNNY   20  18  92 NW9       29.55F WCI   9
CASPER         FAIR      31  24  75 N9        29.56F WCI  23
DOUGLAS        FAIR      43  24  47 NW10      29.55F

$$
WYZ021-027>030-104>119-232000-
SOUTHERN WYOMING

CITY           SKY/WX    TMP DP  RH WIND       PRES   REMARKS
EVANSTON       LGT SNOW  29  24  82 SW30G38   29.46F VSB 3/4 WCI  13
ROCK SPRINGS   FAIR      32  21  64 SW12      29.48F WCI  23
RAWLINS        PTSUNNY   32  26  78 SW14      29.54F WCI  22
LARAMIE        FAIR      30  26  85 S7        29.55F WCI  23
CHEYENNE       FAIR      46  22  38 W17G26    29.55F
TORRINGTON     CLOUDY    41  23  48 SE6       29.56F

$$



USA.gov is the U.S. government's official web portal to all federal, state and local government web resources and services.